Miscellaneous Local Product
Issued by NWS North Platte, NE

Home | Current Version | Previous Version | Text Only | Print | Product List | Glossary On
Versions: 1 2 3 4 5 6 7 8 9 10 11 12 13 14 15 16 17 18 19 20 21 22 23 24 25 26 27 28 29 30 31 32 33 34 35 36 37 38 39 40 41 42 43 44 45 46 47 48 49 50
000
AXUS43 KLBF 191710
MISLBF


WESTERN AND NORTH CENTRAL NEBRASKA HOURLY WEATHER ROUNDUP
NATIONAL WEATHER SERVICE NORTH PLATTE NE
1200 PM CDT FRI SEP 19 2014

***STATIONS NOT REPORTING VARIABLES SUCH AS SKY/WEATHER OR
PRESSURE ARE PROVIDED BY THE NEBRASKA DEPARTMENT OF
ROADS...RAWS...AND APRS NETWORKS...AND ARE NOT UNDER
NATIONAL WEATHER SERVICE QUALITY CONTROL***

...OBSERVATIONS IN AND NEAR THE EASTERN PANHANDLE OF NEBRASKA...

CITY           SKY/WX    TMP DP  RH WIND       PRES   REMARKS
PINE RIDGE     PTSUNNY   74  58  57 W7        29.87R
CHADRON        PTSUNNY   78  55  44 SW7       29.87R
ALLIANCE       SUNNY     78  56  46 W6        29.90S
SIDNEY         SUNNY     81  49  32 VRB5      29.96S
WHITECLAY        N/A     75  54  46 W7          N/A
RUSHVILLE        N/A     86  43  22 E8          N/A
CRESCENT LAKE    N/A     77  56  47 W5          N/A
LISCO            N/A     80  51  36 SW10        N/A
BIG SPRINGS      N/A     75  60  58 W3          N/A
$$

...OBSERVATIONS IN NORTH CENTRAL NEBRASKA...

CITY           SKY/WX    TMP DP  RH WIND       PRES   REMARKS
VALENTINE      MOSUNNY   82  57  42 NW10      29.80R
THEDFORD       SUNNY     87  52  30 SW22G28   29.83S
AINSWORTH      MOSUNNY   79  59  50 SW9       29.80S
O`NEILL        SUNNY     80  65  58 SW15G23   29.78F
ORD            SUNNY     79  64  60 SW15      29.82F
BROKEN BOW     SUNNY     82  60  47 SW17      29.84F
SPRINGVIEW       N/A     80  64  58 W6          N/A
ROSE             N/A     84  64  51 S16         N/A
NEWPORT          N/A     82  62  50 SW17        N/A
COMSTOCK         N/A     86  69  55 SW13        N/A  HX  90
CHAMBERS         N/A     80  63  55 S10         N/A
$$

...OBSERVATIONS IN SOUTHWEST NEBRASKA AND FAR NORTHEAST COLORADO...

CITY           SKY/WX    TMP DP  RH WIND       PRES   REMARKS
WRAY           FAIR      85  55  34 SW8G16    29.93F
HOLYOKE        FAIR      84  52  32 CALM      29.93
IMPERIAL       SUNNY     83  58  42 W8        29.90F
OGALLALA       SUNNY     80  62  54 SW7       29.89S
NORTH PLATTE   SUNNY     78  63  59 W5        29.87F
MCCOOK         SUNNY     87  60  40 SW15      29.88F
LEXINGTON      SUNNY     79  65  63 SW12G17   29.90R
PAXTON           N/A     70  62  77 SW3         N/A
SUTHERLAND       N/A     84  55  37 SW9         N/A
BRADY            N/A     77  64  64 CALM        N/A
GOTHENBURG       N/A     75  59  58 S5          N/A
CALLAWAY         N/A     74  67  77 SW10        N/A
$$

...SOME WEATHER OBSERVATIONS FROM AROUND THE REGION...

CITY           SKY/WX    TMP DP  RH WIND       PRES   REMARKS
DENVER         MOSUNNY   78  42  27 E12       30.05R
LARAMIE        SUNNY     72  41  32 SW16      30.15F
CHEYENNE       SUNNY     80  41  24 W14       30.07S
SCOTTSBLUFF    MOSUNNY   78  52  40 W7        29.92F
RAPID CITY     CLOUDY    81  51  35 NW10      29.84R
PIERRE         MOSUNNY   78  63  59 W8        29.71S
WINNER         FAIR      82  61  48 W12       29.74S
SIOUX FALLS    MOSUNNY   78  64  61 S23G32    29.70F
OMAHA          MOSUNNY   74  65  73 SE17      29.90F
GRAND ISLAND   SUNNY     82  64  54 S16       29.88F
KANSAS CITY    CLOUDY    66  64  93 S8        30.02F FOG
WICHITA        MOSUNNY   84  66  54 S10       29.98F
HAYS           SUNNY     81  64  57 SW16      29.96F
LIBERAL        MOSUNNY   81  63  54 S16G22    30.03F
GOODLAND       SUNNY     81  59  47 S20G25    29.95F
$$



USA.gov is the U.S. government's official web portal to all federal, state and local government web resources and services.